FW6013 Weather Reports


time (UTC)temp
F
wind
direction
speed
knots
gust
knots
rain 1hr
in
rain 24hr
in
rain mn
in
humidity
%
barometer
mb
20260508214004 58 262 1.7 7.8 0.00 0.00 0.00 24 1002.4
20260508213504 59 261 3.5 7.8 0.00 0.00 0.00 23 1002.3
20260508213005 59 257 3.5 7.0 0.00 0.00 0.00 23 1002.3
20260508211004 60 261 3.5 9.6 0.00 0.00 0.00 21 1002.3
20260508210505 60 255 2.6 9.6 0.00 0.00 0.00 21 1002.3
20260508210004 61 257 3.5 12.2 0.00 0.00 0.00 21 1002.2
20260508205504 61 259 3.5 12.2 0.00 0.00 0.00 20 1002.3
20260508205004 61 249 4.3 11.3 0.00 0.00 0.00 20 1002.0
20260508204505 62 248 4.3 15.6 0.00 0.00 0.00 21 1002.1
20260508204004 62 260 3.5 15.6 0.00 0.00 0.00 20 1002.0
20260508203005 63 254 5.2 15.6 0.00 0.00 0.00 20 1001.9
20260508202505 62 249 3.5 15.6 0.00 0.00 0.00 20 1001.8
20260508202004 63 262 6.1 14.8 0.00 0.00 0.00 21 1001.6
20260508201005 63 259 5.2 15.6 0.00 0.00 0.00 22 1001.3
20260508200005 63 260 6.1 14.8 0.00 0.00 0.00 22 1001.6
20260508195505 63 249 5.2 14.8 0.00 0.00 0.00 22 1001.6
20260508194504 63 276 2.6 13.9 0.00 0.00 0.00 24 1001.8
20260508194005 62 261 9.6 14.8 0.00 0.00 0.00 24 1001.8
20260508193504 63 252 5.2 14.8 0.00 0.00 0.00 25 1001.6
20260508193004 62 263 7.8 13.9 0.00 0.00 0.00 24 1001.7
20260508192504 63 266 7.0 14.8 0.00 0.00 0.00 24 1001.5
20260508191504 63 253 6.1 11.3 0.00 0.00 0.00 26 1002.0
20260508190504 62 274 3.5 14.8 0.00 0.00 0.00 27 1001.9
20260508190004 62 271 5.2 13.9 0.00 0.00 0.00 27 1002.0
20260508185004 63 275 3.5 13.9 0.00 0.00 0.00 28 1002.1
20260508184504 62 273 4.3 13.9 0.00 0.00 0.00 28 1002.2
20260508183504 61 270 7.0 15.6 0.00 0.00 0.00 30 1002.4
20260508183004 61 265 7.0 15.6 0.00 0.00 0.00 30 1002.3
20260508182504 61 272 7.0 18.2 0.00 0.00 0.00 30 1002.6
20260508181504 61 278 5.2 15.6 0.00 0.00 0.00 29 1002.6
20260508181004 61 280 8.7 13.9 0.00 0.00 0.00 30 1002.5
20260508180505 61 270 3.5 13.0 0.00 0.00 0.00 31 1002.7
20260508180005 61 270 7.0 13.0 0.00 0.00 0.00 30 1002.6
20260508175004 61 265 3.5 13.0 0.00 0.00 0.00 31 1002.7
20260508174505 60 256 7.0 13.0 0.00 0.00 0.00 31 1002.8
20260508174004 61 258 4.3 13.0 0.00 0.00 0.00 31 1002.8
20260508173504 61 270 7.0 18.2 0.00 0.00 0.00 31 1002.6
20260508173004 60 274 7.0 18.2 0.00 0.00 0.00 33 1002.7
20260508172504 60 266 8.7 13.9 0.00 0.00 0.00 33 1002.7
20260508171504 59 274 9.6 19.1 0.00 0.00 0.00 34 1003.1
20260508171004 61 259 5.2 12.2 0.00 0.00 0.00 34 1003.1
20260508170505 60 244 5.2 13.0 0.00 0.00 0.00 34 1003.2
20260508165504 60 253 4.3 13.9 0.00 0.00 0.00 35 1003.4
20260508165005 60 274 6.1 13.9 0.00 0.00 0.00 36 1003.4
20260508164504 59 284 5.2 13.9 0.00 0.01 0.00 35 1003.6
20260508164004 59 275 5.2 13.9 0.00 0.01 0.00 36 1003.7
20260508163004 58 282 6.1 15.6 0.00 0.02 0.00 36 1003.7
20260508162504 58 282 8.7 15.6 0.00 0.02 0.00 37 1003.9
20260508161504 59 255 5.2 15.6 0.00 0.02 0.00 38 1003.7
20260508161004 59 274 3.5 13.9 0.00 0.02 0.00 38 1004.0
20260508160505 58 256 10.4 13.9 0.00 0.02 0.00 38 1004.2
20260508160005 58 235 3.5 12.2 0.00 0.02 0.00 38 1004.0
20260508155504 59 270 5.2 13.9 0.00 0.02 0.00 38 1004.5
20260508155004 59 277 2.6 13.9 0.00 0.04 0.00 38 1004.4
20260508154504 57 267 7.8 13.9 0.00 0.05 0.00 39 1004.7
20260508154005 58 272 3.5 13.9 0.00 0.06 0.00 39 1004.5
20260508152504 57 256 5.2 15.6 0.00 0.08 0.00 39 1004.9
20260508152005 57 275 7.0 15.6 0.00 0.08 0.00 40 1005.0
20260508151505 56 277 6.1 18.2 0.00 0.08 0.00 40 1005.2
20260508151004 56 266 8.7 18.2 0.00 0.08 0.00 41 1005.2
20260508150504 57 258 5.2 13.9 0.00 0.08 0.00 41 1005.2
20260508150005 56 265 5.2 13.9 0.00 0.08 0.00 41 1005.3
20260508145505 56 263 5.2 13.9 0.00 0.08 0.00 42 1005.3
20260508145005 56 246 6.1 13.9 0.00 0.08 0.00 42 1005.4
20260508144504 56 228 7.0 13.9 0.00 0.08 0.00 42 1005.2
20260508144004 56 230 3.5 13.9 0.00 0.08 0.00 42 1005.3
20260508143505 55 251 7.0 13.9 0.00 0.08 0.00 42 1005.3
20260508143005 56 249 3.5 13.9 0.00 0.08 0.00 43 1005.3
20260508142504 55 241 5.2 14.8 0.00 0.08 0.00 43 1005.2
20260508142005 54 248 7.0 14.8 0.00 0.08 0.00 43 1005.3
20260508141505 55 242 5.2 13.9 0.00 0.08 0.00 43 1005.4
20260508141004 54 234 7.0 13.9 0.00 0.08 0.00 43 1005.4
20260508140504 55 240 3.5 11.3 0.00 0.08 0.00 43 1005.2
20260508140005 54 237 6.1 13.9 0.00 0.08 0.00 43 1005.3
20260508135505 54 232 4.3 15.6 0.00 0.09 0.00 43 1005.2
20260508135004 54 242 6.1 15.6 0.00 0.09 0.00 44 1005.5
20260508133005 53 252 7.8 13.9 0.00 0.09 0.00 45 1005.5
20260508132004 52 257 7.0 20.9 0.00 0.09 0.00 46 1005.2
20260508131505 52 266 7.0 13.9 0.00 0.09 0.00 47 1005.1
20260508131005 52 260 6.1 13.9 0.00 0.09 0.00 47 1005.2
20260508130504 51 251 7.0 17.4 0.00 0.09 0.00 48 1005.0
20260508130004 51 253 7.0 17.4 0.00 0.09 0.00 48 1005.1
20260508125504 51 259 3.5 15.6 0.00 0.09 0.00 48 1005.1
20260508125005 51 271 6.1 11.3 0.00 0.09 0.00 48 1005.2
20260508124504 51 273 3.5 13.0 0.00 0.09 0.00 49 1005.0
20260508124004 51 259 7.0 13.0 0.00 0.09 0.00 49 1005.1
20260508123505 50 246 3.5 13.0 0.00 0.09 0.00 50 1005.2
20260508122005 50 255 3.5 9.6 0.00 0.09 0.00 52 1004.8
20260508121505 49 271 3.5 11.3 0.00 0.09 0.00 54 1005.1
20260508121004 48 274 4.3 11.3 0.00 0.09 0.00 54 1005.0
20260508120504 48 267 2.6 14.8 0.00 0.09 0.00 55 1004.9
20260508120005 48 262 2.6 14.8 0.00 0.09 0.00 56 1004.9
20260508115505 48 273 7.0 12.2 0.00 0.09 0.00 56 1005.0
20260508115005 47 274 5.2 9.6 0.00 0.09 0.00 57 1004.8
20260508114005 48 279 3.5 12.2 0.00 0.09 0.00 56 1004.6
20260508113505 48 281 3.5 11.3 0.00 0.09 0.00 55 1004.3
20260508112004 48 270 3.5 11.3 0.00 0.09 0.00 56 1004.4
20260508111504 47 275 4.3 12.2 0.00 0.09 0.00 56 1004.0
20260508110504 48 284 5.2 12.2 0.00 0.09 0.00 55 1004.2
20260508110004 48 280 4.3 11.3 0.00 0.09 0.00 55 1004.0
20260508105005 48 274 3.5 9.6 0.00 0.09 0.00 54 1003.8
20260508104504 48 275 3.5 9.6 0.00 0.09 0.00 53 1003.6
20260508104004 48 277 2.6 12.2 0.00 0.09 0.00 52 1003.5
20260508103004 49 255 5.2 12.2 0.00 0.09 0.00 50 1003.3
20260508102504 49 249 3.5 23.5 0.00 0.09 0.00 50 1003.3
20260508102004 49 254 5.2 23.5 0.00 0.09 0.00 49 1003.0
20260508101504 49 257 6.1 17.4 0.00 0.09 0.00 49 1002.8
20260508101004 49 243 5.2 12.2 0.00 0.09 0.00 49 1002.8
20260508100504 49 248 6.1 12.2 0.00 0.09 0.00 49 1002.8
20260508100004 49 245 6.1 14.8 0.00 0.09 0.00 48 1002.8
20260508095004 49 253 3.5 13.0 0.00 0.09 0.00 49 1002.7
20260508094505 49 248 4.3 13.9 0.00 0.09 0.00 50 1002.6
20260508093504 49 259 6.1 15.6 0.00 0.09 0.00 51 1002.5
20260508093004 49 253 5.2 13.9 0.00 0.09 0.00 52 1002.7
20260508092504 49 245 6.1 13.9 0.00 0.09 0.00 52 1002.7
20260508092004 49 249 6.1 15.6 0.00 0.09 0.00 53 1002.7
20260508091504 49 249 7.8 17.4 0.00 0.09 0.00 54 1002.3
20260508091004 49 257 7.0 17.4 0.00 0.09 0.00 54 1002.1
20260508090504 49 269 6.1 14.8 0.00 0.11 0.00 55 1002.2
20260508085505 48 251 7.0 13.0 0.00 0.11 0.00 57 1001.8
20260508085005 48 255 3.5 14.8 0.00 0.11 0.00 57 1001.7
20260508084004 48 261 7.0 14.8 0.00 0.11 0.00 57 1001.7
20260508083505 48 269 4.3 12.2 0.00 0.11 0.00 58 1001.6
20260508083005 48 266 5.2 11.3 0.00 0.11 0.00 58 1001.5
20260508082505 49 262 5.2 11.3 0.00 0.11 0.00 58 1001.6
20260508082004 49 264 4.3 12.2 0.00 0.11 0.00 57 1001.5
20260508081505 49 262 5.2 12.2 0.00 0.11 0.00 57 1001.5
20260508081005 49 245 5.2 11.3 0.00 0.11 0.00 57 1001.6
20260508080505 49 237 3.5 11.3 0.00 0.11 0.00 57 1001.4
20260508080005 49 236 3.5 13.0 0.00 0.11 0.00 56 1001.5
20260508075504 49 236 2.6 13.0 0.00 0.11 0.00 56 1001.5
20260508075004 50 247 3.5 12.2 0.00 0.11 0.00 56 1001.4
20260508074505 50 229 4.3 12.2 0.00 0.14 0.00 56 1001.6
20260508074005 50 223 4.3 12.2 0.00 0.14 0.00 56 1001.3
20260508073504 50 242 2.6 12.2 0.00 0.14 0.00 58 1001.6
20260508073004 50 232 3.5 12.2 0.00 0.14 0.00 58 1001.5
20260508072505 50 223 4.3 12.2 0.00 0.15 0.00 58 1001.5
20260508072005 50 235 2.6 9.6 0.00 0.17 0.00 58 1001.5
20260508071005 50 250 4.3 9.6 0.00 0.19 0.00 59 1001.5
20260508070505 50 252 3.5 9.6 0.00 0.19 0.00 59 1001.5
20260508070006 51 246 5.2 9.6 0.00 0.19 0.00 58 1001.5
20260508065005 51 228 2.6 11.3 0.00 0.19 0.00 58 1001.3
20260508064505 51 230 4.3 11.3 0.00 0.19 0.00 57 1001.6
20260508064005 51 244 7.0 11.3 0.00 0.19 0.00 56 1001.6
20260508063505 51 252 6.1 11.3 0.00 0.19 0.00 56 1001.4
20260508063005 51 238 4.3 11.3 0.00 0.19 0.00 55 1001.4
20260508062504 51 228 7.0 13.9 0.00 0.19 0.00 55 1001.4
20260508062005 51 230 3.5 13.9 0.00 0.19 0.00 55 1001.2
20260508061505 51 231 5.2 13.0 0.00 0.19 0.00 54 1001.4
20260508061005 51 234 2.6 13.0 0.00 0.19 0.00 54 1001.5
20260508060005 52 253 4.3 9.6 0.00 0.19 0.00 53 1001.7
20260508055505 52 236 4.3 9.6 0.00 0.19 0.00 54 1001.7
20260508055005 52 243 2.6 11.3 0.00 0.19 0.00 55 1001.6
20260508054505 52 252 5.2 11.3 0.00 0.19 0.00 54 1001.8
20260508053004 51 262 2.6 7.0 0.00 0.19 0.00 58 1002.1
20260508052005 50 274 3.5 7.0 0.00 0.19 0.00 62 1002.3
20260508051504 50 274 3.5 7.0 0.00 0.19 0.00 63 1002.2
20260508051005 50 285 3.5 9.6 0.00 0.19 0.00 64 1002.1
20260508050505 49 296 3.5 9.6 0.00 0.19 0.00 66 1001.9
20260508050005 49 303 3.5 9.6 0.00 0.19 0.00 68 1002.0
20260508045505 49 310 3.5 9.6 0.00 0.19 0.00 70 1002.0
20260508045006 49 313 4.3 7.8 0.00 0.19 0.00 72 1001.9
20260508044505 49 313 4.3 7.8 0.00 0.19 0.00 71 1001.8
20260508044005 49 303 4.3 7.0 0.00 0.19 0.00 70 1001.7
20260508043505 50 294 3.5 7.8 0.00 0.19 0.00 67 1001.7
20260508043005 52 299 4.3 7.8 0.00 0.19 0.00 60 1001.7
20260508042504 52 297 5.2 9.6 0.00 0.19 0.00 60 1001.7
20260508042004 54 287 3.5 9.6 0.00 0.19 0.00 57 1001.7
20260508041505 55 281 4.3 9.6 0.00 0.19 0.00 54 1001.2
20260508041005 55 264 6.1 11.3 0.00 0.19 0.00 53 1001.0
20260508040505 56 233 2.6 11.3 0.00 0.19 0.00 54 1000.6
20260508040005 56 222 6.1 11.3 0.00 0.19 0.00 54 1000.6
20260508035504 55 215 2.6 11.3 0.00 0.19 0.00 54 1000.3
20260508035005 55 213 2.6 9.6 0.00 0.19 0.00 55 1000.0
20260508033505 54 263 4.3 12.2 0.00 0.19 0.00 57 1000.7
20260508033005 53 259 4.3 12.2 0.00 0.19 0.00 57 1000.7
20260508032505 53 250 6.1 11.3 0.00 0.19 0.00 57 1000.9
20260508032005 53 263 4.3 11.3 0.00 0.19 0.00 57 1000.9
20260508031505 53 269 2.6 7.8 0.00 0.19 0.00 58 1000.6
20260508030505 53 267 3.5 11.3 0.00 0.19 0.00 58 1000.8
20260508030006 53 270 5.2 11.3 0.00 0.19 0.00 58 1000.9
20260508025505 53 267 3.5 9.6 0.00 0.19 0.19 58 1001.0
20260508025004 54 268 1.7 11.3 0.00 0.19 0.19 58 1000.9
20260508024504 54 264 4.3 11.3 0.00 0.19 0.19 57 1001.1
20260508024004 55 260 3.5 12.2 0.00 0.19 0.19 55 1001.1
20260508023504 54 261 3.5 12.2 0.00 0.19 0.19 56 1001.1
20260508023004 54 256 3.5 11.3 0.00 0.19 0.19 56 1001.2
20260508022505 55 250 4.3 11.3 0.00 0.19 0.19 55 1001.2
20260508022004 54 260 3.5 9.6 0.00 0.19 0.19 56 1001.0
20260508021504 54 264 4.3 9.6 0.00 0.19 0.19 57 1001.0
20260508021004 54 261 1.7 12.2 0.00 0.19 0.19 57 1001.2
20260508020004 55 265 3.5 11.3 0.00 0.19 0.19 57 1001.4
20260508015504 55 263 3.5 9.6 0.00 0.19 0.19 57 1000.8
20260508015004 54 260 5.2 9.6 0.00 0.19 0.19 58 1001.2
20260508014505 54 260 3.5 9.6 0.00 0.19 0.19 59 1000.9
20260508013504 55 264 3.5 11.3 0.00 0.19 0.19 59 1001.0
20260508013005 55 267 6.1 9.6 0.00 0.19 0.19 59 1001.1
20260508012505 55 270 6.1 11.3 0.00 0.19 0.19 59 1000.8
20260508012005 55 273 3.5 11.3 0.00 0.19 0.19 60 1000.6
20260508011504 55 279 3.5 9.6 0.00 0.19 0.19 61 1000.5
20260508011004 55 283 4.3 9.6 0.00 0.19 0.19 62 1000.4
20260508010504 55 279 3.5 7.8 0.00 0.19 0.19 62 1000.6
20260508005505 55 281 5.2 9.6 0.00 0.19 0.19 62 1000.6
20260508005004 56 273 3.5 9.6 0.00 0.19 0.19 62 1000.6
20260508004504 56 273 1.7 9.6 0.00 0.19 0.19 63 1000.4
20260508004004 56 270 2.6 9.6 0.00 0.19 0.19 62 1000.5
20260508003505 56 273 3.5 7.0 0.00 0.19 0.19 61 1000.5
20260508003005 56 262 2.6 9.6 0.00 0.19 0.19 61 1000.4
20260508002504 56 261 3.5 9.6 0.00 0.19 0.19 61 1000.2
20260508002004 56 271 3.5 9.6 0.00 0.19 0.19 62 1000.3
20260508001504 57 264 4.3 7.0 0.00 0.19 0.19 61 1000.1
20260508001004 57 246 3.5 9.6 0.00 0.19 0.19 61 1000.3
20260508000004 57 267 2.6 9.6 0.00 0.19 0.19 60 1000.2
20260507235505 58 268 3.5 9.6 0.00 0.19 0.19 60 1000.1
20260507235004 58 260 3.5 7.8 0.00 0.19 0.19 60 1000.1
20260507234504 58 259 3.5 7.8 0.00 0.19 0.19 59 1000.1
20260507234004 58 257 4.3 7.8 0.00 0.19 0.19 59 1000.3
20260507233505 58 257 3.5 7.8 0.00 0.19 0.19 59 1000.3
20260507232504 58 255 1.7 7.8 0.00 0.19 0.19 59 1000.5
20260507232005 59 249 3.5 7.8 0.00 0.19 0.19 59 1000.5
20260507231505 59 236 2.6 5.2 0.00 0.19 0.19 59 1000.4
20260507230504 59 260 3.5 9.6 0.00 0.19 0.19 57 1000.6
20260507230005 59 265 3.5 9.6 0.00 0.19 0.19 57 1000.3
20260507225004 59 264 1.7 7.0 0.00 0.19 0.19 58 1000.3
20260507223504 60 254 3.5 7.0 0.00 0.19 0.19 58 999.9
20260507222505 60 266 1.7 6.1 0.00 0.19 0.19 59 1000.0
20260507222004 60 265 3.5 6.1 0.00 0.19 0.19 59 999.7
20260507221504 60 260 3.5 6.1 0.00 0.19 0.19 59 999.7
20260507221004 60 266 1.7 9.6 0.00 0.19 0.19 60 999.6
20260507220505 60 270 1.7 9.6 0.00 0.19 0.19 60 999.7
20260507220004 60 264 2.6 6.1 0.00 0.19 0.19 60 999.6
20260507215504 60 267 2.6 6.1 0.00 0.19 0.19 61 999.3
20260507215005 60 273 2.6 6.1 0.00 0.19 0.19 63 999.2